FW5122 Weather Reports


Display with metric or nautical units.
time (UTC)temp
F
wind
direction
speed
MPH
gust
MPH
rain 1hr
in
rain 24hr
in
rain mn
in
humidity
%
barometer
mb
20260502185732 77 5 5.0 10.0 0.00 0.00 0.00 36 1021.6
20260502185032 76 8 2.0 8.0 0.00 0.00 0.00 37 1021.6
20260502184332 77 8 2.0 8.0 0.00 0.00 0.00 39 1021.6
20260502183632 76 356 8.0 8.0 0.00 0.00 0.00 39 1021.9
20260502182933 76 336 0.0 8.0 0.00 0.00 0.00 36 1021.6
20260502182233 76 350 5.0 8.0 0.00 0.00 0.00 40 1021.9
20260502181532 75 6 11.0 8.0 0.00 0.00 0.00 40 1021.9
20260502180832 76 9 0.0 6.0 0.00 0.00 0.00 41 1022.3
20260502180133 76 8 5.0 6.0 0.00 0.00 0.00 38 1022.3
20260502163732 73 359 5.0 6.0 0.00 0.00 0.00 49 1022.9
20260502163032 73 345 5.0 6.0 0.00 0.00 0.00 47 1022.9
20260502162332 73 17 2.0 6.0 0.00 0.00 0.00 47 1022.9
20260502161633 72 1 5.0 6.0 0.00 0.00 0.00 53 1022.9
20260502160933 72 12 2.0 6.0 0.00 0.00 0.00 53 1022.9
20260502160232 72 1 2.0 6.0 0.00 0.00 0.00 53 1022.9
20260502152032 67 7 2.0 6.0 0.00 0.00 0.00 62 1022.6
20260502151332 66 27 5.0 6.0 0.00 0.00 0.00 64 1022.6
20260502150632 65 344 0.0 6.0 0.00 0.00 0.00 64 1022.9
20260502130732 55 356 0.0 4.0 0.00 0.00 0.00 84 1021.9
20260502122732 52 2 0.0 0.0 0.00 0.00 0.00 85 1021.2
20260502122032 52 3 0.0 0.0 0.00 0.00 0.00 85 1021.2
20260502121332 52 3 0.0 0.0 0.00 0.00 0.00 84 1021.2
20260502120632 53 3 0.0 0.0 0.00 0.00 0.00 84 1021.2
20260502115932 52 2 0.0 0.0 0.00 0.00 0.00 84 1020.9
20260502114531 53 3 0.0 0.0 0.00 0.00 0.00 84 1020.6
20260502113131 53 2 0.0 0.0 0.00 0.00 0.00 85 1020.2
20260502112432 52 3 0.0 0.0 0.00 0.00 0.00 85 1020.2
20260502111733 52 3 0.0 0.0 0.00 0.00 0.00 85 1020.2
20260502110332 52 3 0.0 0.0 0.00 0.00 0.00 85 1019.9
20260502105632 52 3 0.0 0.0 0.00 0.00 0.00 85 1019.9
20260502104932 52 3 0.0 0.0 0.00 0.00 0.00 84 1019.9
20260502104233 52 3 0.0 0.0 0.00 0.00 0.00 85 1020.2
20260502103531 51 3 0.0 0.0 0.00 0.00 0.00 84 1020.2
20260502102832 52 3 0.0 0.0 0.00 0.00 0.00 84 1019.9
20260502102132 52 3 0.0 0.0 0.00 0.00 0.00 84 1020.2
20260502100731 52 3 0.0 0.0 0.00 0.00 0.00 84 1019.9
20260502091131 52 3 0.0 0.0 0.00 0.00 0.00 85 1019.6
20260502090433 52 4 0.0 0.0 0.00 0.00 0.00 85 1019.6
20260502071231 52 5 0.0 0.0 0.00 0.00 0.00 84 1019.9
20260502070531 53 5 0.0 0.0 0.00 0.00 0.00 83 1019.6
20260502065831 53 5 0.0 0.0 0.00 0.00 0.00 83 1019.9
20260502065131 53 11 0.0 0.0 0.00 0.00 0.00 83 1019.9
20260502064431 53 11 0.0 0.0 0.00 0.00 0.00 83 1019.9
20260502063731 53 11 0.0 0.0 0.00 0.00 0.00 83 1019.6
20260502063032 53 11 0.0 0.0 0.00 0.00 0.00 82 1019.9
20260502061631 54 11 0.0 0.0 0.00 0.00 0.00 82 1019.9
20260502060933 54 11 0.0 0.0 0.00 0.00 0.00 81 1019.9
20260502054831 54 11 0.0 0.0 0.00 0.00 0.00 80 1019.6
20260502054132 54 11 0.0 0.0 0.00 0.00 0.00 80 1019.9
20260502053431 55 11 0.0 0.0 0.00 0.00 0.00 80 1019.6
20260502052732 55 11 0.0 0.0 0.00 0.00 0.00 79 1019.9
20260502052031 55 11 0.0 0.0 0.00 0.00 0.00 78 1019.6
20260502051331 55 11 0.0 0.0 0.00 0.00 0.00 78 1019.6
20260502050631 55 10 0.0 0.0 0.00 0.00 0.00 77 1019.6
20260502045931 56 10 0.0 0.0 0.00 0.00 0.00 77 1019.9
20260502045232 56 10 0.0 0.0 0.00 0.00 0.00 76 1019.9
20260502044534 56 10 0.0 0.0 0.00 0.00 0.00 76 1019.6
20260502043834 56 10 0.0 0.0 0.00 0.00 0.00 76 1019.6
20260502042431 57 9 0.0 0.0 0.00 0.00 0.00 75 1019.9
20260502041731 57 9 0.0 0.0 0.00 0.00 0.00 75 1019.6
20260502041032 57 9 0.0 0.0 0.00 0.00 0.00 75 1019.6
20260502040332 58 10 0.0 0.0 0.00 0.00 0.00 74 1019.2
20260502035631 58 10 0.0 0.0 0.00 0.00 0.00 74 1019.6
20260502034931 58 10 0.0 0.0 0.00 0.00 0.00 74 1019.6
20260502034231 58 10 0.0 0.0 0.00 0.00 0.00 74 1019.6
20260502033531 58 6 0.0 0.0 0.00 0.00 0.00 73 1019.6
20260502032831 58 6 0.0 0.0 0.00 0.00 0.00 73 1019.6
20260502032131 59 6 0.0 0.0 0.00 0.00 0.00 73 1019.2
20260502031431 59 5 0.0 0.0 0.00 0.00 0.00 73 1019.2
20260502030031 59 10 0.0 0.0 0.00 0.00 0.00 73 1019.2
20260502024631 59 10 0.0 0.0 0.00 0.00 0.00 73 1019.2
20260502023931 59 10 0.0 0.0 0.00 0.00 0.00 73 1018.5
20260502023231 59 10 0.0 0.0 0.00 0.00 0.00 73 1019.2
20260502022530 59 10 0.0 0.0 0.00 0.00 0.00 72 1018.9
20260502020431 60 10 0.0 4.0 0.00 0.00 0.00 72 1018.5
20260502015731 60 10 0.0 4.0 0.00 0.00 0.00 71 1018.5
20260502015030 60 10 0.0 4.0 0.00 0.00 0.00 71 1018.2
20260502014330 60 10 0.0 4.0 0.00 0.00 0.00 71 1018.2
20260502013631 60 10 0.0 4.0 0.00 0.00 0.00 70 1018.2
20260502012931 60 10 0.0 4.0 0.00 0.00 0.00 70 1017.9
20260502012230 60 14 0.0 4.0 0.00 0.00 0.00 70 1017.5
20260502011531 61 16 2.0 4.0 0.00 0.00 0.00 70 1017.2
20260502010831 60 15 2.0 4.0 0.00 0.00 0.00 69 1017.5
20260502010131 61 12 0.0 4.0 0.00 0.00 0.00 69 1017.5
20260502005430 61 11 0.0 4.0 0.00 0.00 0.00 68 1017.5
20260502004031 62 9 0.0 4.0 0.00 0.00 0.00 68 1017.2
20260502003330 62 9 0.0 4.0 0.00 0.00 0.00 67 1017.2
20260502002631 62 9 0.0 4.0 0.00 0.00 0.00 67 1017.2
20260502001931 62 17 0.0 4.0 0.00 0.00 0.00 66 1017.2
20260502001232 62 17 0.0 4.0 0.00 0.00 0.00 66 1017.2
20260502000532 62 8 0.0 6.0 0.00 0.00 0.00 66 1016.8
20260501235834 62 6 0.0 6.0 0.00 0.00 0.00 66 1016.8
20260501235133 62 5 0.0 6.0 0.00 0.00 0.00 66 1016.5
20260501233733 63 11 5.0 6.0 0.00 0.00 0.00 65 1016.5
20260501232333 63 5 0.0 6.0 0.00 0.00 0.00 64 1016.2
20260501230234 63 23 0.0 6.0 0.00 0.00 0.00 64 1015.8
20260501224133 63 9 0.0 6.0 0.00 0.00 0.00 63 1016.2
20260501223433 63 26 2.0 6.0 0.00 0.00 0.00 63 1015.8
20260501222733 63 353 5.0 6.0 0.00 0.00 0.00 63 1015.8
20260501222032 63 9 2.0 6.0 0.00 0.00 0.00 63 1015.8
20260501221333 63 2 5.0 6.0 0.00 0.00 0.00 63 1016.2
20260501220633 63 7 0.0 8.0 0.00 0.00 0.00 62 1016.2
20260501215933 63 4 0.0 8.0 0.00 0.00 0.00 62 1016.2
20260501215239 63 338 2.0 8.0 0.00 0.00 0.00 62 1015.8
20260501214532 63 4 5.0 10.0 0.00 0.00 0.00 61 1015.8
20260501213833 63 8 2.0 10.0 0.00 0.00 0.00 61 1016.2
20260501213133 63 356 5.0 10.0 0.00 0.00 0.00 61 1015.8
20260501212432 63 16 2.0 10.0 0.00 0.00 0.00 61 1015.8
20260501211033 63 5 2.0 14.0 0.00 0.00 0.00 61 1016.2
20260501205633 63 343 0.0 14.0 0.00 0.00 0.00 61 1015.8
20260501204933 63 0 5.0 14.0 0.00 0.00 0.00 60 1016.2
20260501204232 63 10 5.0 14.0 0.00 0.00 0.00 59 1016.8
20260501202833 63 3 2.0 14.0 0.00 0.00 0.00 58 1016.5
20260501202132 64 107 11.0 10.0 0.00 0.00 0.00 59 1016.5
20260501201433 64 5 5.0 17.0 0.00 0.00 0.00 59 1016.8
20260501200733 64 4 5.0 17.0 0.00 0.00 0.00 59 1017.2
20260501200032 64 22 8.0 17.0 0.00 0.00 0.00 60 1016.8
20260501195337 64 4 0.0 17.0 0.00 0.00 0.00 61 1016.8
20260501194634 64 348 8.0 17.0 0.00 0.00 0.00 60 1016.2
20260501193933 64 357 2.0 17.0 0.00 0.00 0.00 60 1016.2
20260501193232 64 16 5.0 17.0 0.00 0.00 0.00 58 1015.8
20260501192532 64 26 17.0 12.0 0.00 0.00 0.00 60 1016.2
20260501191832 64 357 2.0 12.0 0.00 0.00 0.00 58 1016.5
20260501191134 64 313 5.0 12.0 0.00 0.00 0.00 59 1016.2